Simultaneous Nadir Overpasses (SNOs) Predictions

Prediction of SNOs between LANDSAT-8 and METOP-A Satellite Orbit:

Table of predicted SNOs for the next 14.0 days since TLE Epoch: 6/29/2019
Index Date (LANDSAT-8) Time (LANDSAT-8) Lat,Lon (LANDSAT-8) SZA (LANDSAT-8 ) Date (METOP-A) Time (METOP-A) Lat,Lon (METOP-A) SZA (METOP-A ) Distance(km) Time Diff (sec)
1 06/30/2019 20:48:17 81.47, -85.64 61.00 06/30/2019 20:47:25 81.47, -85.83 60.96 3.09 52
2 06/30/2019 21:37:44 -81.46, 81.90 119.02 06/30/2019 21:38:05 -81.47, 81.71 119.02 3.22 21
3 07/03/2019 16:22:32 81.47, -19.23 61.19 07/03/2019 16:21:47 81.47, -19.14 61.18 1.58 45
4 07/03/2019 17:11:59 -81.46, 148.34 118.83 07/03/2019 17:12:27 -81.47, 148.43 118.80 1.62 28
5 07/06/2019 11:56:48 81.47, 47.17 61.42 07/06/2019 11:56:11 81.47, 47.14 61.40 0.77 37
6 07/06/2019 12:46:15 -81.46,-145.24 118.59 07/06/2019 12:46:51 -81.47,-145.27 118.57 0.93 36
7 07/09/2019 07:31:03 81.48, 113.94 61.76 07/09/2019 07:30:34 81.47, 113.81 61.73 2.36 29
8 07/09/2019 08:20:30 -81.48, -78.45 118.24 07/09/2019 08:21:14 -81.47, -78.57 118.24 2.26 44
9 07/12/2019 03:05:18 81.48,-179.71 62.10 07/12/2019 03:04:56 81.47,-179.54 62.10 2.80 22




NCC Satellite Simultaneous Nadir Overpasses (SNOs) Prediction Service
